CZ-6A DEB, 54306

Orbit data source: Space-Track

CZ-6A DEB, 54306 is space debris in SSO originally from a launch on Fri, 11 Nov 2022 UTC launched from the Taiyaun Space Center, China (TSC). Debris objects in space refer to the collection of defunct objects orbiting the Earth. Examples of debris include non-operational satellites, rocket bodies, and fragments generated from explosions, collisions, or faulty payload assembly.

Loading next visibility...
Identifier
54306, 2022-151AZ
Orbit
SSO
Country
Flag of CNCN / PRC
Related business
Manufacturer
SAST
Mission
Spacecraft
Bus & Motor
Unknown
Mass
Unknown
Launch date (UTC)
2022-11-11 (4 years ago)
Launch vehicle
Unknown
Launch site
Taiyaun Space Center, China (TSC)
Object type
Payload
Rocket body
Debris
Shape & HBR
Unknown shape, 0.2 m
Radar Cross Section
Medium (>0.1 m² and <1 m²)

Expand to show TLE details & history
Last TLE update: 6 hours ago

TLE from 6 hours ago
0 CZ-6A DEB
1 54306U 22151AZ  26207.60080589  .00000297  00000-0  18620-3 0  9990
2 54306  98.8365 209.7473 0038790 213.9394 145.9295 14.11701429190150
Epoch: 2026-07-26T14:25Z
TLE epoch observation values (Epoch: 2026-07-26T14:25:09.628Z)
Latitude
-0.00006°
Longitude
49.16079°
Altitude
879.729 km
Speed
7.4 km/s
True Right ascension
13h 58m 59s
True Declination
0° 00' 00"
Sunlit
Object was in daylight at epoch
Visualization orbit readout
Latitude
Unknown
Longitude
Unknown
Altitude
Unknown
Speed
Unknown
Apparent Right ascension
Unknown
Apparent Declination
Unknown
Sunlit
N/A
Visualization observer readout
Local Sidereal Time
09:24:41
Azimuth
Unknown
Elevation
Unknown
Doppler factor
Unknown
Orbital elements
Apogee altitude
878.772 km
Perigee altitude
822.69 km
Semi-major axis
7,228.868 km
Eccentricity
0.00388
Inclination
98.8365°
RAAN
209.7473°
Arg. of periapsis
213.9394°
True anomaly
146.17752°
Mean anomaly
145.9295°
Eccentric anomaly
146.05361°
Mean motion
3.53133 °/min
Orbital period
101.94 mins
BSTAR
0.0001862
Loading maneuver chart data...
Computing Atmospheric mass density...

Documentation

Showing up to 5 results
|